Regional Weather Roundup
Issued by NWS Bismarck, ND

Home | Current Version | Previous Version | Text Only | Print | Product List | Glossary On
Versions: 1 2 3 4 5 6 7 8 9 10 11 12 13 14 15 16 17 18 19 20 21 22 23 24 25 26 27 28 29 30 31 32 33 34 35 36 37 38 39 40 41 42 43 44 45 46 47 48 49 50
000
ASUS43 KBIS 080110
RWRBIS

NWR BROADCAST TEXT
NATIONAL WEATHER SERVICE BISMARCK ND
800 PM CDT TUE JUL 07 2015

NOTE: "FAIR" INDICATES FEW OR NO CLOUDS BELOW 12,000 FEET WITH NO
SIGNIFICANT WEATHER AND/OR OBSTRUCTIONS TO VISIBILITY.


CITY           SKY/WX    TMP DP  RH WIND       PRES   REMARKS
WILLISTON      MOSUNNY   78  48  34 CALM      29.94F
MINOT          MOSUNNY   74  56  53 S9        29.94R
MINOT AFB      MOSUNNY   72  61  68 NW17      29.93R
BISMARCK       CLOUDY    71  56  58 S9        29.99S
DICKINSON      PTSUNNY   65  59  81 NE8       29.97R
GARRISON         N/A     71  58  63 S15       29.97S
HETTINGER ARPT PTSUNNY   64  58  80 SE16      29.97F
JAMESTOWN      SUNNY     69  48  47 S10       30.02F
BEACH          CLOUDY    66  64  94 E7        29.98S
CROSBY         FAIR      72  57  60 SW9       29.94S
HARVEY         FAIR      72  55  56 S10       29.98S
HAZEN          MOCLDY    68  57  68 SE10G17   29.96F
LINTON         FAIR      68  57  68 S10       30.01S
MANDAN         FAIR      68  57  68 S10       30.00F
OAKES            N/A     66  50  55 S8        30.06S
STANLEY        MOCLDY    64  64 100 E8        29.97F
$$

CITY           SKY/WX    TMP DP  RH WIND       PRES   REMARKS
GRAND FORKS    MOSUNNY   70  47  43 S8        30.01F
GRAND FORKS AF SUNNY     70  49  46 SW8       30.02F
DEVILS LAKE    SUNNY     72  50  46 S10       29.97F
FARGO          MOSUNNY   69  45  41 S10       30.05F
CANDO          FAIR      70  54  56 S8        29.98S
CAVALIER       FAIR      70  50  49 S8        29.98F
GRAFTON        FAIR      70  50  49 S7        30.01F
GWINNER        FAIR      72  46  40 SE8       30.06F
LANGDON        FAIR      66  54  63 S9        29.99F
ROLLA          FAIR      64  57  77 SW7       29.98F
WALHALLA       FAIR      70  50  49 MISG      29.97F
$$

CITY           SKY/WX    TMP DP  RH WIND       PRES   REMARKS
ABERDEEN       SUNNY     69  49  48 S7        30.06S
MOBRIDGE       SUNNY     74  57  55 SE20      29.99S
BUFFALO          N/A     74  55  51 SW3       29.90R
RAPID CITY     MOSUNNY   70  57  63 S14       30.00F
GLASGOW        PTSUNNY   77  45  32 W13       29.95F
SIDNEY         SUNNY     77  48  36 N6        29.95F
WOLF POINT     PTSUNNY   76  54  46 SW5       29.94F
GLENDIVE       SUNNY     79  45  29 N12       29.96S
MILES CITY     SUNNY     81  44  27 N16G23    29.95R
BAKER          PTSUNNY   75  56  51 N13       29.97R
$$

CITY           SKY/WX    TMP DP  RH WIND       PRES   REMARKS
BILLINGS       PTSUNNY   78  41  26 NE20G25   30.02R
GREAT FALLS    MOSUNNY   66  50  56 CALM      30.09F
REGINA         SUNNY     68  57  68 N23G30    29.94R SMOKE
ESTEVAN        PTSUNNY   72  54  53 S10       29.93S
$$



USA.gov is the U.S. government's official web portal to all federal, state and local government web resources and services.